Wetbulb
53.79 54.06 54.71 53.97 54.05 54.11 53.05 54.52 52.41 50.82 53.39 53.78 61.86 63.17 64.73 67.99 68.34 67.63 67.95 69.31 71.40 71.54 72.64 72.42 68.60 71.08 72.37 71.67 71.42 70.40 72.32 72.33 72.53 73.49 73.32 72.77 72.35 71.75 71.46 70.83 70.19 69.94 69.63 69.02
52.16 53.63 53.51 52.70 54.21 54.75 53.87 54.62 54.62 54.41 55.21 56.74 62.18 65.34 65.25 66.23 66.88 66.64 67.39 68.11 70.49 71.57 72.82 71.08 68.86 70.80 72.32 71.69 71.48 71.88 70.66 71.58 73.19 73.17 73.15 72.50 72.06 71.47 71.28 70.42 70.16 70.04 69.46 68.89
50.21 52.87 52.55 50.06 53.16 54.69 55.17 56.16 56.36 53.60 60.15 63.13 63.41 64.64 65.63 65.97 65.98 66.18 66.77 68.18 68.90 70.65 72.29 72.00 70.16 71.30 71.83 72.49 72.82 72.08 71.76 72.23 73.13 72.89 72.73 72.29 72.09 71.39 70.75 70.23 70.10 68.85 68.63 68.58
50.67 52.95 45.76 53.20 56.82 56.59 55.85 56.75 57.83 61.38 61.94 63.82 65.19 65.86 67.42 67.82 66.78 66.71 68.58 68.07 69.09 71.75 72.47 72.60 71.66 72.07 72.52 72.62 72.79 71.86 71.38 72.58 72.96 73.12 72.51 72.51 71.93 71.51 71.17 70.08 69.08 68.22 68.42 69.33
50.09 49.36 51.84 54.91 56.69 56.45 55.56 55.00 59.52 61.16 62.49 64.04 65.44 66.37 65.76 67.93 68.90 69.97 69.82 70.99 71.82 73.73 72.68 73.35 71.67 72.49 70.84 70.67 71.49 70.15 68.73 71.09 71.75 72.89 73.00 72.17 71.43 71.73 71.60 69.97 68.71 67.40 68.12 68.05
52.94 47.91 46.23 54.30 59.04 60.76 59.63 53.79 61.37 62.88 62.81 63.02 64.48 59.18 63.82 68.65 70.18 69.27 69.22 69.61 71.59 72.70 73.76 73.12 72.58 72.15 71.45 69.53 68.33 67.02 68.16 70.74 72.26 72.86 73.49 72.63 71.11 72.05 72.38 70.40 68.76 66.94 67.57 67.80
52.18 50.54 52.89 57.96 61.32 62.38 53.42 55.29 62.56 63.42 63.67 63.36 62.95 66.83 68.33 70.40 68.55 68.26 67.47 67.54 70.64 72.56 72.10 72.60 72.03 71.75 70.08 69.17 67.24 69.16 68.71 70.43 70.62 68.77 69.21 71.37 71.80 72.52 71.26 70.11 69.19 67.89 66.31 66.50
52.54 50.61 47.64 61.06 60.74 57.05 62.20 64.58 63.71 64.03 64.65 65.99 67.55 67.83 68.79 69.49 68.45 67.23 66.89 66.96 68.92 68.33 68.63 69.84 71.81 71.08 70.09 69.26 68.28 68.57 67.40 68.58 68.21 68.70 69.90 70.36 71.12 72.10 70.77 68.05 66.11 66.77 64.94 64.44
54.24 54.77 61.70 65.01 65.69 67.24 67.32 65.61 65.58 65.73 66.81 67.46 67.12 67.20 68.88 69.08 67.49 66.65 66.55 66.57 67.01 67.31 68.02 68.28 68.77 70.05 68.60 66.27 67.20 67.13 66.43 66.35 65.51 66.12 66.58 68.87 70.14 67.82 65.57 64.62 64.14 64.19 64.02 63.93
56.75 59.53 62.41 64.33 66.25 67.32 67.70 67.41 66.75 67.28 67.16 67.76 67.34 68.12 68.49 69.24 68.59 68.07 67.51 67.98 68.63 67.83 67.06 65.97 66.64 67.14 66.88 66.02 65.66 65.36 65.36 64.54 64.36 64.62 64.92 65.83 66.96 64.31 62.85 62.16 62.35 62.80 63.31 60.99
54.86 60.31 62.07 64.58 66.16 66.52 67.42 68.35 66.95 67.28 67.27 67.79 67.61 67.70 68.34 67.93 68.79 68.81 67.76 68.43 68.57 67.37 66.99 66.22 65.33 65.55 66.22 64.85 64.88 64.45 63.35 63.51 63.13 63.01 61.48 57.47 54.71 55.62 61.51 61.87 59.01 62.54 63.24 62.12
56.66 62.94 62.56 65.15 66.37 67.12 66.63 66.72 67.39 67.42 67.58 68.27 68.33 68.11 68.55 67.82 68.25 68.53 68.10 67.97 67.54 67.18 66.08 65.95 65.31 65.13 64.72 65.02 64.75 63.40 63.13 63.01 62.67 62.36 58.49 55.79 54.50 52.58 46.72 46.11 45.71 47.10 47.08 55.63
60.96 63.66 64.96 65.90 66.43 67.47 66.37 67.48 67.77 68.01 68.18 67.43 67.66 67.67 67.44 67.04 67.80 63.77 67.58 67.45 67.46 67.22 67.09 67.25 66.46 65.81 66.10 64.83 64.06 62.92 62.30 62.86 62.86 60.29 60.73 57.68 57.49 55.33 52.58 49.97 43.73 42.20 42.29 43.73
64.42 64.29 62.44 64.50 64.43 67.36 66.13 66.66 65.54 67.64 67.48 67.02 67.02 67.15 66.56 66.31 65.70 66.86 66.56 66.94 67.44 67.30 67.11 67.18 66.24 66.51 66.59 65.94 64.52 63.30 62.66 54.80 62.69 62.29 61.87 60.48 58.81 59.38 61.14 58.42 54.03 54.66 45.79 47.31
61.44 62.30 62.49 64.54 64.96 65.02 66.04 64.22 60.55 60.18 62.91 64.75 64.51 64.07 65.32 63.79 63.88 64.61 66.41 66.15 66.25 66.11 65.78 66.08 65.83 66.19 67.17 66.60 64.23 62.62 62.15 62.97 62.17 62.11 62.15 61.04 62.20 60.96 59.47 58.91 60.13 59.28 56.90 48.90
59.79 60.35 59.42 59.84 61.94 63.42 63.55 60.20 57.63 59.11 59.35 59.59 59.83 59.62 60.74 63.29 63.83 64.14 64.62 65.17 64.66 64.24 65.11 65.34 65.39 66.65 66.38 65.84 64.65 63.31 62.11 58.08 59.08 62.78 62.47 61.97 62.36 62.39 62.56 62.78 62.61 61.12 58.54 57.87
58.09 57.49 58.31 58.25 60.19 60.92 61.96 61.38 57.43 59.05 58.67 60.34 60.49 61.05 60.76 61.14 61.97 62.32 63.75 64.90 65.41 64.96 65.60 65.81 65.75 66.77 66.58 65.70 64.54 63.41 62.24 61.43 59.81 62.55 63.58 62.61 62.34 61.72 61.34 60.48 59.17 57.24 57.09 57.10
60.61 60.79 60.55 60.97 59.95 60.09 59.82 59.90 60.41 60.73 60.57 60.85 61.26 61.42 61.14 61.48 61.38 62.24 63.05 63.76 63.84 63.73 64.66 65.38 65.96 66.65 66.22 65.58 64.96 63.97 62.55 60.74 61.38 60.03 59.63 58.04 57.52 57.00 56.55 56.22 56.21 57.08 57.28 54.11
59.04 58.80 59.31 59.86 59.92 60.03 60.22 60.28 60.85 61.11 61.41 61.22 60.78 60.61 61.31 61.51 61.80 62.32 63.37 63.21 63.00 62.45 63.14 65.71 62.06 64.28 66.11 64.87 63.93 63.99 61.08 59.49 59.78 58.03 58.87 55.26 56.46 57.39 57.44 57.77 57.68 57.84 57.54 55.58
57.21 57.57 57.79 57.69 58.69 57.93 58.81 59.73 60.20 60.18 60.87 61.07 60.81 60.43 60.16 60.78 61.38 61.29 61.80 61.40 62.69 62.98 65.61 64.83 65.33 65.47 66.26 65.37 60.37 62.83 61.91 59.74 59.19 55.32 57.37 54.94 55.84 56.77 57.88 54.16 57.26 57.97 57.58 56.85
56.72 57.20 57.16 57.31 57.84 58.83 59.53 60.30 59.96 59.51 60.03 60.38 59.58 59.43 59.69 60.62 60.80 60.93 59.73 58.63 62.14 63.31 63.53 62.35 64.99 63.41 64.72 64.33 62.63 62.61 62.64 59.87 59.55 57.42 55.64 55.22 56.08 56.43 56.95 57.32 58.18 58.73 57.12 56.89
57.56 57.54 57.58 57.98 58.18 58.64 59.96 60.23 60.03 59.78 59.62 59.41 59.06 58.76 57.96 57.79 59.11 59.54 60.88 59.92 60.95 55.76 60.19 61.75 62.58 61.48 63.76 59.53 64.02 62.00 61.61 61.30 59.66 57.89 56.63 56.89 57.66 57.21 56.38 56.61 56.50 55.72 57.57 58.93
57.41 57.70 57.86 58.21 58.38 58.45 59.13 59.49 58.38 57.29 56.87 57.54 57.21 56.29 55.16 55.34 55.79 53.99 53.49 59.52 60.07 57.09 59.49 61.76 58.32 55.47 55.55 63.45 62.63 62.25 61.49 62.07 59.69 58.59 58.22 57.47 57.39 55.60 56.44 56.59 54.25 53.20 53.33 55.56
55.72 56.32 57.18 58.48 58.97 58.64 57.72 58.21 58.57 58.53 57.82 56.54 55.84 56.30 55.37 53.42 54.62 56.41 56.83 53.74 51.41 52.84 57.12 57.37 57.11 53.76 51.01 62.53 62.46 62.16 59.45 57.91 59.78 57.50 56.25 51.97 55.08 54.11 53.69 52.87 51.31 51.20 51.76 50.60
57.74 57.37 57.96 57.65 56.52 55.97 57.42 57.43 57.94 57.14 56.68 55.62 55.22 54.66 54.69 54.31 53.08 53.57 53.39 53.80 51.08 53.37 56.52 51.94 50.67 51.24 60.24 62.69 62.63 59.88 58.48 55.39 54.80 55.06 54.64 54.17 53.80 53.53 52.26 53.47 52.47 52.17 52.20 52.05
56.66 57.00 58.15 57.60 56.78 56.95 56.93 56.55 56.02 55.24 55.08 52.69 54.00 55.05 53.71 53.28 53.72 53.68 53.43 51.74 53.75 53.12 56.13 54.96 56.79 57.52 57.05 57.51 57.34 56.03 54.11 53.37 53.55 54.08 53.29 54.23 53.17 52.89 53.18 53.06 52.43 51.57 51.59 51.39
56.43 51.42 56.40 55.33 55.75 57.14 55.62 54.39 54.17 54.54 54.42 53.53 53.82 54.05 53.44 53.42 52.76 51.08 49.77 51.57 51.90 52.19 53.44 54.89 55.53 55.15 54.80 53.95 53.37 52.74 51.85 51.41 48.34 52.03 51.68 50.86 50.99 51.24 51.14 51.58 51.87 51.39 51.54 53.42
MSLP
1000.53 999.91 999.00 998.61 999.39 999.75 1000.05 1000.18 1000.29 1001.93 1003.93 1005.27 1003.51 1003.58 1004.01 1005.03 1005.96 1006.47 1007.03 1007.56 1008.31 1009.27 1010.03 1010.72 1011.59 1012.03 1012.09 1012.22 1012.43 1012.88 1013.07 1013.31 1013.68 1014.26 1014.88 1015.53 1015.85 1016.17 1016.38 1016.39 1016.63 1016.77 1016.84 1017.02
1000.81 1000.23 999.43 999.37 999.31 999.28 999.67 999.87 1000.43 1001.43 1003.93 1004.96 1004.85 1004.16 1005.05 1005.99 1006.49 1006.94 1007.37 1007.80 1008.30 1009.35 1009.95 1010.66 1011.54 1011.88 1012.12 1012.32 1012.30 1012.47 1013.02 1013.23 1013.91 1014.30 1014.76 1015.43 1015.87 1016.26 1016.49 1016.63 1016.93 1017.03 1017.02 1017.12
1000.85 1000.28 999.67 999.11 999.21 999.03 999.49 999.88 1000.11 1000.88 1002.29 1003.59 1003.72 1004.68 1005.87 1006.49 1006.87 1007.20 1007.58 1007.99 1008.52 1009.11 1009.65 1010.49 1011.32 1011.91 1012.26 1012.47 1012.69 1012.72 1013.12 1013.14 1013.85 1014.56 1014.67 1015.47 1015.82 1016.34 1016.41 1016.94 1017.08 1017.28 1017.28 1017.43
1001.03 1000.53 999.24 998.66 998.86 998.84 999.12 999.51 999.96 1001.27 1002.82 1003.30 1004.38 1005.23 1006.19 1006.95 1007.37 1007.89 1008.28 1008.61 1008.79 1008.99 1009.60 1010.45 1011.15 1011.89 1012.53 1012.80 1013.14 1013.07 1013.15 1013.11 1013.89 1014.48 1014.69 1015.37 1015.79 1016.12 1016.51 1016.99 1017.32 1017.52 1017.59 1017.82
1001.10 1000.29 999.41 999.00 998.93 998.76 998.69 999.41 998.91 1000.67 1002.86 1003.52 1004.25 1005.43 1006.99 1007.86 1008.45 1008.95 1009.44 1009.63 1009.66 1009.31 1009.77 1010.50 1011.22 1012.02 1012.92 1013.18 1013.35 1013.51 1013.45 1013.74 1013.82 1014.09 1014.42 1015.07 1015.58 1015.86 1016.40 1016.95 1017.25 1017.66 1017.61 1018.07
1000.89 1000.46 999.73 999.09 998.85 999.35 999.60 1000.17 1000.72 1001.09 1002.70 1003.73 1004.90 1005.30 1006.96 1008.39 1009.19 1010.01 1010.61 1010.89 1010.51 1009.95 1010.11 1010.82 1011.74 1012.48 1012.79 1013.36 1013.86 1013.77 1013.60 1013.89 1013.48 1014.03 1014.18 1014.67 1015.32 1015.55 1016.23 1016.62 1016.98 1017.32 1017.59 1017.97
1001.30 1000.78 1000.83 1001.35 1000.21 1000.52 1001.03 1002.32 1002.09 1002.65 1003.49 1004.21 1005.32 1006.70 1007.89 1008.96 1010.45 1011.20 1011.51 1011.78 1011.39 1010.74 1010.69 1011.58 1012.45 1012.80 1013.05 1013.52 1013.88 1014.11 1014.31 1014.42 1014.65 1015.15 1014.93 1015.19 1015.35 1015.58 1015.92 1016.47 1017.06 1017.20 1017.65 1018.11
1001.43 1001.51 1002.49 1002.27 1002.41 1001.98 1003.49 1003.50 1003.57 1004.34 1004.82 1005.55 1006.75 1007.54 1008.34 1009.40 1010.69 1011.55 1012.01 1012.25 1012.04 1012.48 1012.71 1012.99 1013.00 1013.23 1013.13 1013.53 1014.36 1014.59 1014.97 1014.83 1015.31 1015.60 1015.77 1015.67 1015.45 1015.63 1015.96 1016.66 1017.17 1017.44 1017.71 1018.02
1003.56 1004.08 1004.69 1004.21 1005.22 1004.55 1004.97 1004.69 1004.65 1005.25 1005.67 1006.31 1007.13 1007.96 1008.82 1009.75 1011.21 1011.91 1012.37 1012.58 1012.79 1012.91 1013.08 1013.53 1013.62 1013.79 1013.83 1014.43 1014.85 1015.00 1015.31 1015.47 1015.67 1016.05 1016.35 1015.95 1015.85 1016.21 1016.61 1017.08 1017.37 1017.49 1017.47 1017.40
1004.20 1004.93 1005.37 1005.65 1005.95 1005.84 1005.93 1005.61 1005.61 1006.01 1006.32 1006.67 1007.44 1008.35 1009.25 1010.01 1010.92 1011.59 1012.27 1012.15 1012.23 1012.61 1013.07 1013.62 1014.04 1014.14 1014.45 1014.79 1015.10 1015.33 1015.58 1015.86 1016.21 1016.33 1016.67 1016.75 1016.49 1016.71 1017.04 1017.36 1017.55 1017.33 1017.41 1017.75
1004.32 1005.23 1005.60 1006.09 1006.39 1006.44 1006.51 1006.61 1006.42 1006.77 1006.99 1007.41 1008.03 1008.82 1009.84 1010.64 1010.97 1011.39 1012.04 1012.11 1012.22 1012.69 1013.16 1013.67 1014.39 1014.63 1014.79 1015.05 1015.02 1015.38 1015.75 1015.90 1016.20 1016.42 1016.88 1017.22 1017.73 1017.81 1017.41 1017.42 1017.63 1017.33 1017.35 1017.67
1005.59 1006.09 1006.09 1006.62 1007.34 1007.23 1007.03 1007.13 1007.22 1007.40 1007.81 1008.22 1008.64 1009.36 1010.06 1010.88 1011.29 1011.50 1011.89 1012.19 1012.41 1012.85 1013.44 1013.75 1014.24 1014.53 1014.81 1014.98 1014.95 1015.32 1015.51 1015.60 1015.75 1016.10 1016.79 1017.28 1017.75 1018.07 1018.01 1017.94 1017.85 1017.74 1017.67 1017.81
1006.46 1007.17 1007.41 1007.72 1008.05 1007.75 1007.84 1007.50 1007.88 1008.03 1008.62 1009.03 1009.58 1009.98 1010.58 1011.17 1011.61 1012.31 1012.11 1012.18 1012.33 1012.64 1013.07 1013.40 1013.63 1013.91 1014.30 1014.94 1015.18 1015.36 1015.39 1015.27 1015.41 1015.73 1016.08 1016.99 1017.29 1017.68 1018.07 1018.62 1018.33 1018.35 1018.54 1018.53
1007.80 1007.61 1007.84 1007.97 1008.28 1008.54 1008.71 1009.03 1009.03 1009.25 1009.63 1010.11 1010.39 1010.63 1011.00 1011.37 1012.11 1011.99 1012.04 1012.14 1012.42 1012.69 1012.82 1012.99 1013.15 1013.15 1013.76 1014.39 1014.95 1015.18 1015.33 1015.37 1015.11 1015.01 1015.31 1016.03 1016.65 1016.79 1016.81 1017.47 1018.07 1018.51 1019.01 1019.11
1008.64 1008.43 1008.34 1008.58 1008.92 1008.94 1009.48 1009.95 1011.09 1011.61 1011.49 1011.63 1012.13 1012.07 1011.68 1011.69 1011.70 1011.78 1012.03 1012.45 1012.67 1012.78 1012.71 1012.85 1012.83 1012.81 1013.28 1013.68 1014.29 1014.79 1014.95 1014.69 1014.80 1014.67 1014.70 1014.88 1015.31 1015.76 1016.17 1016.51 1016.41 1016.82 1018.05 1019.14
1010.01 1009.39 1009.19 1009.04 1009.60 1008.56 1010.24 1011.37 1012.00 1012.61 1013.13 1013.39 1013.18 1013.11 1012.60 1012.23 1012.01 1011.70 1011.91 1012.18 1012.69 1012.49 1012.41 1012.45 1012.66 1012.59 1013.28 1013.76 1013.78 1013.95 1014.51 1014.76 1014.45 1014.21 1014.08 1014.44 1014.43 1014.42 1014.13 1014.12 1014.30 1014.98 1016.44 1017.11
1009.91 1009.47 1009.47 1009.44 1009.63 1009.71 1010.35 1010.51 1012.13 1012.10 1012.73 1013.35 1013.14 1012.67 1011.92 1012.35 1012.41 1011.79 1011.60 1011.88 1012.13 1012.53 1012.62 1012.51 1012.54 1012.62 1013.01 1013.39 1013.58 1013.43 1013.63 1013.83 1013.96 1013.57 1012.95 1013.07 1012.73 1012.61 1012.56 1013.06 1013.61 1014.24 1014.77 1015.50
1010.53 1010.22 1010.15 1010.27 1009.98 1010.60 1011.10 1011.31 1011.64 1012.26 1012.52 1012.89 1012.75 1012.71 1012.70 1012.89 1012.73 1012.51 1012.35 1012.28 1012.22 1012.04 1011.69 1011.55 1011.81 1012.22 1012.49 1012.89 1013.16 1012.93 1013.25 1013.62 1013.27 1013.23 1012.43 1012.48 1012.41 1012.48 1012.60 1012.88 1013.13 1013.48 1014.03 1015.75
1011.61 1011.48 1011.51 1011.60 1011.76 1011.78 1011.89 1011.99 1012.25 1012.58 1012.78 1012.95 1013.05 1013.12 1013.22 1013.21 1013.01 1012.79 1012.59 1012.42 1012.11 1011.75 1011.22 1011.04 1011.22 1011.77 1011.94 1012.41 1012.74 1012.55 1013.13 1013.43 1013.00 1012.88 1012.37 1012.45 1012.54 1012.20 1012.37 1012.38 1012.60 1013.00 1013.55 1014.95
1012.44 1012.43 1012.33 1012.39 1012.40 1012.65 1012.56 1012.46 1012.55 1012.64 1012.73 1012.91 1013.10 1013.24 1013.26 1013.23 1013.17 1012.99 1012.76 1012.38 1012.00 1011.53 1011.19 1010.99 1011.05 1011.27 1011.53 1011.91 1012.51 1012.55 1012.53 1013.13 1013.02 1012.93 1012.70 1012.62 1012.67 1012.57 1012.25 1012.43 1012.40 1012.60 1012.97 1013.55
1013.03 1012.99 1012.89 1012.85 1012.88 1012.85 1012.74 1012.61 1012.77 1012.85 1013.03 1013.20 1013.28 1013.29 1013.21 1013.16 1013.09 1012.87 1012.55 1011.99 1011.37 1011.03 1011.01 1010.90 1010.77 1010.65 1010.51 1011.73 1012.24 1012.19 1011.88 1012.64 1012.79 1012.69 1012.84 1012.88 1013.30 1013.05 1012.44 1012.62 1012.80 1013.11 1013.57 1013.51
1013.61 1013.44 1013.30 1013.26 1013.24 1013.07 1012.96 1012.97 1012.93 1013.02 1013.24 1013.50 1013.99 1014.15 1014.07 1013.93 1013.59 1013.15 1012.71 1012.37 1011.83 1011.72 1011.42 1010.61 1010.03 1009.60 1009.66 1010.93 1011.59 1011.49 1011.49 1011.99 1012.40 1012.57 1012.97 1012.83 1012.45 1012.69 1013.08 1013.63 1014.19 1014.09 1013.47 1013.37
1014.30 1014.13 1013.96 1013.61 1013.37 1013.53 1013.51 1013.25 1013.69 1014.11 1014.33 1014.49 1014.69 1014.95 1014.94 1014.72 1014.46 1014.07 1013.66 1012.91 1012.43 1012.02 1012.33 1011.55 1011.02 1011.00 1010.47 1010.43 1010.23 1010.73 1011.13 1011.50 1011.91 1011.93 1012.04 1012.35 1012.42 1012.75 1013.14 1013.97 1014.67 1014.85 1015.34 1014.71
1015.12 1014.97 1014.68 1014.27 1013.75 1013.67 1013.85 1014.33 1014.30 1014.36 1014.60 1015.05 1015.18 1015.16 1015.06 1014.76 1014.40 1014.04 1013.61 1013.33 1013.28 1013.29 1012.71 1012.41 1011.74 1011.67 1011.85 1010.05 1009.65 1010.82 1011.46 1011.73 1011.67 1011.51 1012.08 1012.71 1013.14 1013.70 1014.50 1015.19 1015.37 1016.50 1015.73 1015.27
1015.29 1015.05 1014.84 1014.79 1014.70 1014.64 1014.45 1014.57 1014.43 1014.67 1014.73 1015.11 1015.33 1015.30 1015.24 1015.06 1015.00 1014.67 1014.49 1013.97 1013.56 1013.18 1012.69 1012.48 1012.30 1011.98 1011.42 1010.75 1010.83 1011.90 1012.21 1012.50 1012.77 1012.99 1013.51 1013.89 1014.02 1014.49 1015.28 1015.79 1015.83 1016.55 1016.72 1016.49
1015.82 1015.52 1015.37 1015.33 1015.20 1015.05 1014.95 1014.93 1014.72 1014.89 1015.16 1015.51 1015.30 1015.43 1015.63 1015.57 1015.31 1014.85 1014.45 1014.07 1013.55 1013.00 1012.74 1012.89 1012.43 1012.37 1012.40 1012.55 1012.79 1013.15 1013.39 1013.49 1013.47 1013.83 1014.23 1014.75 1014.82 1014.74 1015.41 1015.63 1016.15 1016.55 1016.59 1016.21
1016.04 1016.17 1015.87 1015.79 1015.91 1015.61 1015.55 1015.77 1015.53 1015.37 1015.68 1015.59 1015.59 1016.01 1016.13 1015.86 1015.52 1015.23 1014.91 1014.52 1014.23 1013.90 1013.76 1013.68 1013.61 1013.68 1013.77 1013.79 1014.19 1014.35 1014.46 1014.52 1014.65 1014.87 1014.96 1015.01 1015.53 1015.71 1015.63 1015.97 1016.24 1016.16 1015.50 1015.13
Wind_Speed
19 18 13 6 13 16 18 18 17 11 16 8 1 7 8 9 6 6 6 4 6 6 8 9 6 7 8 9 10 12 10 9 8 9 8 7 5 5 5 4 4 4 4 4
18 19 19 10 13 10 16 18 14 9 15 9 10 9 8 8 7 6 4 3 4 7 9 10 9 7 9 9 9 13 13 9 8 8 10 8 7 6 6 4 4 3 3 3
16 20 19 16 16 13 13 14 12 12 17 18 12 10 7 5 3 3 2 2 2 4 7 9 9 7 8 8 8 8 10 10 9 7 9 8 8 7 7 4 4 2 2 4
15 15 23 9 19 19 15 15 13 12 6 12 12 11 9 5 4 2 2 2 2 4 5 9 10 7 5 6 7 6 4 7 8 9 10 9 9 9 7 7 6 4 3 4
14 16 15 6 6 9 12 12 11 11 8 12 13 13 7 6 3 5 5 4 5 4 5 9 8 8 6 6 8 4 3 6 9 11 10 10 9 9 10 7 7 6 5 5
12 20 17 13 19 13 13 8 2 12 10 10 9 8 12 6 8 5 6 6 3 4 6 6 6 4 6 6 7 4 3 10 6 9 10 10 9 9 8 9 9 7 5 6
15 13 6 11 10 5 14 6 10 5 7 9 5 8 9 11 8 7 6 4 5 6 6 6 6 5 6 8 8 3 3 2 1 2 3 4 9 8 10 10 8 6 8 6
15 11 7 5 2 5 9 4 8 9 5 9 9 9 10 9 9 6 7 6 4 6 6 4 2 3 7 7 5 4 5 1 2 2 4 5 9 8 8 8 8 7 9 8
11 6 1 10 10 9 4 6 7 8 9 9 9 8 9 10 9 7 7 6 6 6 6 5 3 2 1 6 3 3 3 3 3 2 4 4 5 5 6 7 6 6 8 8
7 6 10 7 7 8 4 6 6 8 7 6 9 9 9 8 9 8 7 7 7 6 6 5 3 2 6 6 4 4 5 4 4 2 1 3 0 5 6 6 5 2 7 6
2 7 6 8 9 6 6 4 6 6 5 7 7 8 8 5 6 7 4 5 5 4 5 6 3 1 3 4 5 3 3 3 4 4 3 3 4 4 3 2 2 9 8 5
4 7 5 10 5 1 4 7 6 8 8 5 7 7 8 7 5 5 6 5 5 5 6 6 7 4 3 4 5 4 4 5 5 6 4 4 4 3 12 8 7 9 11 2
7 4 6 6 4 2 5 6 7 8 7 7 7 7 8 7 6 5 3 3 3 3 3 2 3 4 3 3 4 4 5 5 5 4 6 5 6 5 5 4 9 9 8 8
7 1 5 7 7 7 8 7 5 10 9 9 8 7 6 8 3 2 2 3 2 2 2 2 3 2 3 4 4 5 7 2 7 6 5 7 7 6 6 8 6 5 2 3
6 9 7 5 6 8 7 12 17 12 10 11 12 7 2 2 1 1 2 4 5 6 5 6 6 5 4 4 6 6 6 8 6 6 6 7 8 8 9 9 9 9 8 5
3 1 2 2 6 13 13 12 7 4 4 3 4 3 9 8 5 3 2 4 6 8 8 6 8 8 5 6 7 6 7 5 7 8 8 8 9 11 12 12 11 10 9 10
6 6 5 4 3 4 11 7 15 14 12 11 9 7 5 6 6 6 6 4 7 7 10 9 10 9 4 6 8 7 5 6 9 11 10 9 9 9 6 6 7 8 9 11
3 3 3 6 3 5 4 4 6 5 4 1 1 4 3 6 6 7 7 8 9 10 10 9 8 10 7 8 8 7 6 8 7 11 8 8 8 7 7 9 9 9 8 9
6 5 5 5 6 5 4 3 2 1 1 3 4 5 6 8 9 9 9 10 11 11 12 8 4 8 10 9 7 7 6 6 9 7 7 5 7 8 8 9 10 10 11 11
5 4 4 3 1 3 6 6 6 6 6 7 8 8 9 10 10 11 11 12 13 12 13 14 7 8 9 6 10 9 7 6 8 6 9 3 7 8 8 8 7 7 6 10
5 5 5 6 6 7 7 7 7 7 8 8 9 10 11 11 12 12 13 12 13 12 9 6 7 10 8 8 10 10 8 7 9 3 3 3 8 13 4 1 2 2 3 3
7 7 8 7 7 7 7 8 8 8 10 10 11 11 11 13 13 14 14 13 11 14 13 13 12 12 9 12 10 10 9 11 9 8 9 12 11 3 3 1 3 5 4 4
9 9 8 7 7 7 8 7 7 5 6 8 9 9 8 7 8 8 9 11 9 10 11 12 11 12 4 9 10 10 9 12 9 7 5 6 5 6 5 5 4 4 1 2
6 6 7 7 6 6 7 7 6 4 5 5 6 6 7 8 8 9 10 8 10 9 11 12 14 8 11 10 8 2 3 3 9 9 4 8 8 10 9 7 9 8 6 7
7 6 5 6 5 3 5 5 5 6 5 6 8 7 9 7 6 9 9 10 12 10 10 5 5 8 8 9 3 3 4 5 5 5 6 4 6 7 5 4 5 1 5 5
5 3 3 5 5 5 6 5 4 6 6 6 6 8 8 7 7 6 6 7 7 6 1 1 4 6 7 6 5 6 7 6 7 6 6 5 6 7 4 4 2 2 6 8
3 3 3 3 3 1 4 4 4 4 5 4 6 8 6 6 6 6 7 6 6 6 6 5 6 7 6 7 7 6 6 6 7 6 6 6 4 2 2 2 5 7 9 13
Wind_Direction
256 273 282 209 207 227 232 239 248 167 319 56 275 100 118 132 161 168 167 184 140 195 185 180 165 181 171 179 169 170 182 164 162 144 156 149 166 172 147 137 106 105 109 105
263 254 263 237 259 226 219 236 236 255 148 189 229 96 121 133 149 149 160 190 184 174 206 184 161 185 173 182 187 177 191 184 161 183 166 157 176 183 166 148 154 152 133 114
247 243 247 226 243 209 217 228 251 241 134 161 116 100 116 129 148 166 167 202 213 188 206 176 174 164 186 187 197 196 192 167 163 195 166 168 171 182 167 161 163 174 143 115
248 244 246 231 229 230 214 225 221 118 119 100 112 115 100 75 100 143 89 353 280 196 195 169 165 159 109 173 196 213 238 182 161 187 192 178 193 166 184 156 169 185 191 104
250 236 244 151 239 241 215 214 178 115 124 113 109 110 113 114 103 50 19 346 335 328 186 155 161 138 162 187 191 168 73 242 189 201 193 175 191 189 178 162 169 177 181 135
224 252 241 208 187 207 214 221 84 130 134 127 141 219 109 118 65 62 44 353 252 224 143 127 98 162 181 185 187 192 210 270 246 219 202 177 187 199 184 171 168 182 161 161
234 225 189 357 105 160 203 102 99 103 132 133 162 56 110 106 84 70 58 30 17 348 119 111 143 162 178 177 181 182 238 276 244 336 340 201 202 201 180 174 167 170 170 151
227 260 155 36 262 256 93 119 128 130 102 90 108 118 112 110 97 95 93 89 86 76 63 59 153 240 187 184 102 75 48 201 172 332 218 220 230 200 174 164 161 175 166 177
14 76 347 63 62 90 57 103 106 112 112 129 132 135 128 114 102 102 103 100 105 105 99 94 66 84 162 115 157 182 180 154 85 62 322 313 220 168 155 151 169 186 183 177
155 59 93 106 120 92 67 91 120 117 124 137 118 132 125 126 121 121 133 138 133 124 96 93 75 88 119 134 135 166 177 165 174 205 220 309 184 157 164 167 183 180 171 174
288 125 136 98 72 65 96 120 132 122 130 115 126 122 116 124 127 113 105 87 81 84 83 79 86 88 142 147 144 175 179 184 188 170 167 103 45 356 202 149 199 190 181 198
56 24 5 74 64 31 108 121 128 122 109 126 135 131 130 122 118 124 119 117 105 107 131 153 164 164 181 153 151 183 216 213 207 180 156 155 157 112 44 36 31 58 51 46
54 34 48 73 63 100 92 119 136 124 123 119 110 114 100 98 81 53 113 107 82 70 96 122 121 98 99 182 193 213 245 249 225 235 158 177 178 163 129 62 57 48 61 64
64 89 136 170 141 78 90 93 114 119 115 107 108 111 122 99 143 98 6 24 13 319 297 285 285 325 143 192 205 227 240 342 257 213 188 174 184 199 177 168 159 158 99 118
72 42 39 74 76 131 100 67 49 15 38 51 16 358 67 106 90 63 56 342 317 309 305 308 297 293 285 256 189 210 238 245 216 240 216 203 179 184 181 194 196 158 143 168
344 347 356 18 95 137 120 110 96 56 65 65 6 17 329 330 291 279 243 269 291 300 312 271 276 284 206 264 266 219 221 288 235 216 206 205 208 201 210 197 194 162 176 181
277 231 205 207 59 28 134 149 163 166 166 189 207 183 202 288 299 290 340 268 232 259 278 292 294 292 227 225 253 256 218 220 225 242 222 224 223 223 213 194 187 178 193 155
31 8 40 19 101 147 86 59 86 69 68 54 356 336 319 301 311 307 298 297 288 288 272 259 251 264 249 242 240 263 239 283 200 236 222 214 222 203 190 193 186 185 149 136
50 50 61 58 28 358 322 17 15 18 333 315 318 299 298 292 297 296 293 290 288 280 267 311 191 204 241 231 239 248 229 269 262 238 251 207 214 209 197 200 190 187 166 160
62 42 23 9 337 4 321 310 329 320 328 329 318 302 297 297 300 297 294 286 285 288 297 288 261 259 252 221 175 255 217 239 276 216 249 201 221 248 216 217 217 207 194 166
7 353 333 346 340 326 324 338 323 323 324 318 311 306 303 300 292 285 277 271 276 282 307 293 258 272 214 213 196 233 225 220 251 203 253 239 223 233 245 125 234 146 249 240
336 326 330 332 320 316 327 327 316 324 332 339 336 317 315 307 306 303 305 305 302 304 302 289 281 230 208 179 219 235 232 209 223 206 217 233 221 187 187 41 282 313 257 211
333 336 329 316 336 334 308 324 352 346 339 339 340 335 319 305 297 290 289 289 294 327 333 299 9 344 166 206 227 203 226 223 216 235 229 247 217 204 134 106 62 56 349 302
328 323 313 297 300 338 2 8 347 344 350 4 325 322 319 313 302 295 302 319 314 342 316 305 313 325 295 266 239 63 342 348 252 214 159 83 58 70 60 61 58 356 9 35
319 310 345 8 16 353 323 12 338 15 359 28 2 348 341 331 321 320 308 299 295 299 300 8 313 275 259 260 83 101 116 95 100 83 80 95 108 102 101 75 91 357 292 266
335 359 2 346 16 6 12 359 11 36 23 5 355 18 357 353 331 332 328 333 326 311 356 6 41 47 43 46 66 79 72 60 63 71 80 79 77 69 92 100 79 240 252 257
339 340 39 36 33 8 50 38 14 31 29 1 41 28 5 352 1 1 5 11 21 32 41 45 58 64 76 73 67 63 63 63 58 76 65 59 71 96 110 199 231 238 240 242